• Join FlightAware (Why Join?)
  • Login
  • US Flag GB Flag 
16:09 EDT


 

Airport Tracker/Info


-or-


 

Live Flight TrackerFlight Track Log ✈ UAL252 ✈ 25-Jun-2013 ✈ KEWR - KSAN

Flight Track Log - Related Links

Times and Time Zones

All times are in EDT time to prevent confusion due to time zone crossing. See the UAL252 flight status page for this flight to view local times or setup timezone preferences in your user account.

Time Position Orientation Groundspeed Altitude Reporting Facility
EDT Latitude Longitude Course Direction KTS MPH feet Rate Location/Type
11:50 40.6667 -74.1833 217° Southwest 167 192 1,300  Level New York TRACON
11:51 40.6167 -74.2000 194° South 204 235 2,600 1,500 Climbing New York TRACON
11:52 40.6167 -74.2833 270° West 243 280 4,400 2,340 Climbing New York TRACON
11:53 40.6834 -74.6435 270° West  Level FlightAware Approximate
11:54 40.6834 -74.8025 270° West  Level FlightAware Approximate
11:54 40.6175 -74.4292 270° West 250 288 8,900  Level New York Center
11:55 40.6833 -74.9615 270° West  Level FlightAware Approximate
11:55 40.6292 -74.5200 280° West 271 312 11,100  Level New York Center
11:56 40.6583 -75.1084 217° Southwest  Level FlightAware Approximate
11:56 40.6417 -74.6519 277° West 318 366 12,300  Level New York Center
11:57 40.6542 -74.7703 278° West 353 406 14,500 2,040 Climbing New York Center
11:58 40.6681 -74.9133 277° West 358 412 16,500 1,680 Climbing New York Center
11:59 40.6819 -75.0536 277° West 380 437 18,000 1,440 Climbing New York Center
12:00 40.6400 -75.1714 245° Southwest 383 441 19,400 1,560 Climbing New York Center
12:01 40.5808 -75.3014 239° Southwest 402 463 21,100 1,500 Climbing New York Center
12:02 40.5236 -75.4317 240° Southwest 413 475 22,500 1,260 Climbing New York Center
12:03 40.4556 -75.5742 238° Southwest 419 482 23,700 1,140 Climbing New York Center
12:04 40.3936 -75.7089 239° Southwest 424 488 24,800 960 Climbing New York Center
12:05 40.3342 -75.8356 238° Southwest 438 504 25,700 960 Climbing New York Center
12:06 40.2608 -75.9878 238° Southwest 448 516 26,800 960 Climbing New York Center
12:07 40.1917 -76.1322 238° Southwest 459 528 27,700 900 Climbing New York Center
12:08 40.1247 -76.2736 238° Southwest 459 528 28,600 900 Climbing New York Center
12:09 40.0617 -76.4178 240° Southwest 459 528 29,600 1,080 Climbing New York Center
12:11 39.9400 -76.6819 239° Southwest 433 498 31,800 1,080 Climbing Washington Center
12:12 39.8719 -76.8189 237° Southwest 453 521 32,800 1,020 Climbing Washington Center
12:13 39.8058 -76.9581 238° Southwest 453 521 33,900 900 Climbing Washington Center
12:14 39.7417 -77.0972 239° Southwest 453 521 34,700 840 Climbing Washington Center
12:15 39.6775 -77.2361 239° Southwest 453 521 35,600 600 Climbing Washington Center
12:16 39.6131 -77.3719 238° Southwest 453 521 36,000 180 Climbing Washington Center
12:17 39.5464 -77.5131 239° Southwest 453 521 36,000  Level Washington Center
12:18 39.4814 -77.6483 238° Southwest 453 521 36,000  Level Washington Center
12:19 39.4167 -77.7836 238° Southwest 453 521 36,000  Level Washington Center
12:20 39.3556 -77.9242 241° Southwest 453 521 36,000  Level Washington Center
12:21 39.3008 -78.0644 243° Southwest 448 516 36,000  Level Washington Center
12:22 39.2433 -78.2100 243° Southwest 448 516 36,000  Level Washington Center
12:23 39.1861 -78.3497 242° Southwest 448 516 36,000  Level Washington Center
12:24 39.1286 -78.4922 243° Southwest 448 516 36,000  Level Washington Center
12:25 39.0731 -78.6342 243° Southwest 448 516 36,000  Level Washington Center
12:26 39.0172 -78.7761 243° Southwest 448 516 36,000  Level Washington Center
12:27 38.9572 -78.9150 241° Southwest 448 516 36,000  Level Washington Center
12:28 38.9011 -79.0567 243° Southwest 448 516 36,000  Level Washington Center
12:29 38.8469 -79.1981 244° Southwest 448 516 36,000  Level Washington Center
12:30 38.8172 -79.3511 256° West 448 516 36,000  Level Washington Center
12:31 38.7997 -79.5075 262° West 448 516 36,000  Level Washington Center
12:32 38.7819 -79.6664 262° West 448 516 36,000  Level Washington Center
12:33 38.7661 -79.8225 263° West 448 516 36,000  Level Washington Center
12:34 38.7439 -79.9894 260° West 440 506 36,000  Level Indianapolis Center
12:35 38.7272 -80.1447 262° West 441 507 36,000  Level Indianapolis Center
12:36 38.7086 -80.3011 261° West 442 509 36,000  Level Indianapolis Center
12:37 38.6908 -80.4558 262° West 441 507 36,000  Level Indianapolis Center
12:38 38.6697 -80.6422 262° West 441 507 36,000  Level Indianapolis Center
12:39 38.6511 -80.7983 261° West 444 511 36,000  Level Indianapolis Center
12:40 38.6331 -80.9536 262° West 441 507 36,000  Level Indianapolis Center
12:41 38.6139 -81.1083 261° West 441 507 36,000  Level Indianapolis Center
12:42 38.5950 -81.2628 261° West 436 502 36,000  Level Indianapolis Center
12:43 38.5744 -81.4189 260° West 438 504 36,000  Level Indianapolis Center
12:44 38.5550 -81.5808 261° West 446 513 36,000  Level Indianapolis Center
12:45 38.5367 -81.7392 262° West 444 511 36,000  Level Indianapolis Center
12:46 38.5169 -81.8942 261° West 441 507 36,000  Level Indianapolis Center
12:47 38.4972 -82.0506 261° West 444 511 36,000  Level Indianapolis Center
12:48 38.4769 -82.2042 260° West 440 506 36,000  Level Indianapolis Center
12:49 38.4564 -82.3572 260° West 437 503 36,000  Level Indianapolis Center
12:50 38.4339 -82.5294 261° West 432 497 36,000  Level Indianapolis Center
12:51 38.4139 -82.6797 260° West 429 494 36,000  Level Indianapolis Center
12:52 38.3933 -82.8289 260° West 428 493 36,000  Level Indianapolis Center
12:53 38.3719 -82.9792 260° West 430 495 36,000  Level Indianapolis Center
12:55 38.3481 -83.1553 260° West 433 498 36,000  Level Indianapolis Center
12:56 38.3275 -83.3050 260° West 431 496 36,000  Level Indianapolis Center
12:57 38.3053 -83.4536 259° West 428 493 36,000  Level Indianapolis Center
12:58 38.2839 -83.6047 260° West 432 497 36,000  Level Indianapolis Center
12:59 38.2625 -83.7567 260° West 437 503 36,000  Level Indianapolis Center
13:00 38.2397 -83.9128 260° West 443 510 36,000  Level Indianapolis Center
13:01 38.2131 -84.0925 259° West 446 513 36,000  Level Indianapolis Center
13:02 38.1897 -84.2494 259° West 451 519 36,000  Level Indianapolis Center
13:03 38.1664 -84.4056 259° West 451 519 36,000  Level Indianapolis Center
13:04 38.1431 -84.5592 259° West 445 512 36,000  Level Indianapolis Center
13:05 38.1192 -84.7128 259° West 444 511 36,000  Level Indianapolis Center
13:06 38.0956 -84.8644 259° West 440 506 36,000  Level Indianapolis Center
13:07 38.0672 -85.0431 259° West 439 505 36,000  Level Indianapolis Center
13:08 38.0436 -85.1961 259° West 443 510 36,000  Level Indianapolis Center
13:09 38.0211 -85.3433 259° West 445 512 36,000  Level Indianapolis Center
13:10 37.9964 -85.4994 259° West 449 517 36,000  Level Indianapolis Center
13:11 37.9708 -85.6542 258° West 446 513 36,000  Level Indianapolis Center
13:12 37.9458 -85.8092 258° West 448 516 36,000  Level Indianapolis Center
13:13 37.9208 -85.9636 258° West 447 514 36,000  Level Indianapolis Center
13:14 37.8894 -86.1500 258° West 448 516 36,000  Level Indianapolis Center
13:15 37.8647 -86.3044 259° West 446 513 36,000  Level Indianapolis Center
13:16 37.8386 -86.4578 258° West 444 511 36,000  Level Indianapolis Center
13:17 37.8119 -86.6128 258° West 446 513 36,000  Level Indianapolis Center
13:18 37.7853 -86.7689 258° West 448 516 36,000  Level Indianapolis Center
13:19 37.7578 -86.9250 257° West 450 518 36,000  Level Indianapolis Center
13:20 37.7303 -87.0822 258° West 452 520 36,000  Level Indianapolis Center
13:21 37.7019 -87.2458 258° West 452 520 36,000  Level Indianapolis Center
13:22 37.6750 -87.3994 258° West 448 516 36,000  Level Indianapolis Center
13:23 37.6472 -87.5519 257° West 444 511 36,000  Level Indianapolis Center
13:24 37.6139 -87.7328 257° West 449 517 36,000  Level Indianapolis Center
13:25 37.5864 -87.8869 257° West 449 517 36,000  Level Indianapolis Center
13:26 37.5586 -88.0422 257° West 451 519 36,000  Level Indianapolis Center
13:27 37.5303 -88.1972 257° West 451 519 36,000  Level Indianapolis Center
13:29 37.5022 -88.3494 257° West 451 519 36,000  Level Indianapolis Center
13:29 37.4881 -88.4517 260° West 451 519 36,000  Level Memphis Center
13:30 37.4569 -88.6039 256° West 451 519 36,000  Level Memphis Center
13:31 37.4297 -88.7558 257° West 451 519 36,000  Level Memphis Center
13:32 37.4006 -88.9081 256° West 451 519 36,000  Level Memphis Center
13:33 37.3689 -89.0625 256° West 451 519 36,000  Level Memphis Center
13:34 37.3392 -89.2142 256° West 451 519 36,000  Level Memphis Center
13:35 37.3111 -89.3608 257° West 451 519 36,000  Level Memphis Center
13:36 37.2811 -89.5122 256° West 451 519 36,000  Level Memphis Center
13:37 37.2508 -89.6611 256° West 451 519 36,000  Level Memphis Center
13:38 37.2203 -89.8125 256° West 451 519 36,000  Level Memphis Center
13:39 37.1897 -89.9611 256° West 451 519 36,000  Level Memphis Center
13:40 37.1589 -90.1122 256° West 451 519 36,100  Climbing Memphis Center
13:41 37.1278 -90.2633 256° West 456 525 36,000 -60 Descending Memphis Center
13:42 37.0944 -90.4142 255° West 456 525 36,000  Level Memphis Center
13:43 37.0650 -90.5622 256° West 456 525 36,000  Level Memphis Center
13:44 37.0314 -90.7156 255° West 456 525 36,000  Level Memphis Center
13:45 37.0017 -90.8633 256° West 456 525 36,000  Level Memphis Center
13:46 36.9897 -90.9197 255° West 447 514 36,000  Level Kansas City Center
13:47 36.9572 -91.0683 255° West 445 512 36,000  Level Kansas City Center
13:48 36.9228 -91.2289 255° West 448 516 36,000  Level Kansas City Center
13:49 36.8917 -91.3797 256° West 447 514 36,000  Level Kansas City Center
13:50 36.8594 -91.5297 255° West 447 514 36,000  Level Kansas City Center
13:51 36.8197 -91.7114 255° West 449 517 36,000  Level Kansas City Center
13:52 36.7867 -91.8600 255° West 446 513 36,000  Level Kansas City Center
13:53 36.7542 -92.0047 254° West 437 503 36,000  Level Kansas City Center
13:54 36.7222 -92.1522 255° West 438 504 36,000  Level Kansas City Center
13:55 36.6892 -92.2992 254° West 439 505 36,000  Level Kansas City Center
13:56 36.6556 -92.4469 254° West 441 507 36,000  Level Kansas City Center
13:57 36.6156 -92.6242 254° West 450 518 36,000  Level Memphis Center
13:58 36.5769 -92.7883 254° West 455 524 36,000  Level Memphis Center
13:59 36.5517 -92.9064 255° West 445 512 36,000  Level Kansas City Center
14:00 36.5178 -93.0511 254° West 442 509 36,000  Level Kansas City Center
14:01 36.4769 -93.2261 254° West 441 507 36,000  Level Kansas City Center
14:02 36.4436 -93.3700 254° West 439 505 36,000  Level Kansas City Center
14:03 36.4094 -93.5175 254° West 443 510 36,000  Level Kansas City Center
14:04 36.3750 -93.6664 254° West 448 516 36,000  Level Kansas City Center
14:05 36.3403 -93.8119 254° West 455 524 36,000  Level Memphis Center
14:06 36.3025 -93.9622 253° West 448 516 36,000  Level Memphis Center
14:07 36.2669 -94.1100 253° West 453 521 36,000  Level Memphis Center
14:08 36.2311 -94.2600 254° West 453 521 36,000  Level Memphis Center
14:09 36.1950 -94.4050 253° West 453 521 36,000  Level Memphis Center
14:10 36.1531 -94.5764 253° West 445 512 36,000  Level Kansas City Center
14:12 36.1011 -94.7797 253° West 442 509 36,000  Level Kansas City Center
14:13 36.0653 -94.9247 253° West 439 505 36,000  Level Kansas City Center
14:14 36.0283 -95.0711 253° West 440 506 36,000  Level Kansas City Center
14:16 35.9531 -95.3650 253° West 445 512 36,000  Level Kansas City Center
14:17 35.9164 -95.5119 253° West 445 512 36,000  Level Kansas City Center
14:18 35.8781 -95.6597 252° West 448 516 36,000  Level Kansas City Center
14:19 35.8403 -95.8061 252° West 447 514 36,000  Level Kansas City Center
14:20 35.8031 -95.9533 253° West 448 516 36,000  Level Kansas City Center
14:21 35.7633 -96.1003 252° West 446 513 36,000  Level Kansas City Center
14:22 35.7181 -96.2719 252° West 442 509 36,000  Level Kansas City Center
14:23 35.6806 -96.4139 252° West 439 505 36,000  Level Kansas City Center
14:24 35.6436 -96.5558 252° West 438 504 36,000  Level Kansas City Center
14:25 35.6053 -96.6994 252° West 440 506 36,000  Level Kansas City Center
14:26 35.5672 -96.8417 252° West 440 506 36,000  Level Kansas City Center
14:27 35.5264 -96.9928 252° West 459 528 36,000  Level Fort Worth Center
14:28 35.4894 -97.1306 252° West 454 522 36,000  Level Fort Worth Center
14:29 35.4478 -97.2911 252° West 444 511 36,000  Level Fort Worth Center
14:30 35.4083 -97.4314 251° West 446 513 36,000  Level Fort Worth Center
14:31 35.3686 -97.5842 252° West 453 521 36,000  Level Fort Worth Center
14:32 35.3536 -97.7267 263° West 440 506 36,000  Level Fort Worth Center
14:33 35.3533 -97.8717 270° West 425 489 36,000  Level Fort Worth Center
14:34 35.3525 -98.0142 270° West 425 489 36,000  Level Fort Worth Center
14:35 35.3478 -98.1592 268° West 425 489 36,000  Level Fort Worth Center
14:36 35.3467 -98.3069 270° West 425 489 36,000  Level Fort Worth Center
14:37 35.3436 -98.4519 269° West 431 496 36,000  Level Fort Worth Center
14:38 35.3425 -98.5664 269° West 431 496 36,000  Level Fort Worth Center
14:39 35.3367 -98.7292 268° West 431 496 36,100  Climbing Fort Worth Center
14:40 35.3350 -98.8819 269° West 441 507 36,000 -60 Descending Fort Worth Center
14:41 35.3289 -99.0269 267° West 441 507 36,000  Level Fort Worth Center
14:42 35.3269 -99.1744 269° West 435 501 36,000  Level Fort Worth Center
14:43 35.3228 -99.3244 268° West 440 506 36,000  Level Fort Worth Center
14:44 35.3200 -99.4378 268° West 434 499 36,000  Level Albuquerque Center
14:45 35.3161 -99.5850 268° West 431 496 36,000  Level Albuquerque Center
14:46 35.3117 -99.7328 268° West 432 497 36,000  Level Albuquerque Center
14:47 35.3072 -99.9097 268° West 431 496 36,000  Level Albuquerque Center
14:48 35.3011 -100.0572 267° West 432 497 36,000  Level Albuquerque Center
14:49 35.2978 -100.2058 268° West 435 501 36,000  Level Albuquerque Center
14:50 35.2914 -100.3531 267° West 433 498 36,000  Level Albuquerque Center
14:51 35.2861 -100.4992 268° West 430 495 36,000  Level Albuquerque Center
14:52 35.2811 -100.6450 268° West 428 493 36,000  Level Albuquerque Center
14:53 35.2742 -100.8108 267° West 430 495 36,000  Level Albuquerque Center
14:54 35.2683 -100.9569 267° West 431 496 36,000  Level Albuquerque Center
14:55 35.2617 -101.1028 267° West 431 496 36,000  Level Albuquerque Center
14:56 35.2556 -101.2481 267° West 430 495 36,000  Level Albuquerque Center
14:57 35.2508 -101.4075 268° West 431 496 36,000  Level Albuquerque Center
14:58 35.2447 -101.5544 267° West 431 496 36,000  Level Albuquerque Center
14:59 35.2339 -101.7094 265° West 429 494 36,000  Level Albuquerque Center
15:00 35.2322 -101.8561 269° West 428 493 36,000  Level Albuquerque Center
15:01 35.2283 -101.9897 268° West 428 493 36,000  Level Albuquerque Center
15:02 35.2256 -102.1353 269° West 429 494 36,000  Level Albuquerque Center
15:03 35.2214 -102.3089 268° West 427 491 36,000  Level Albuquerque Center
15:04 35.2178 -102.4542 268° West 427 491 36,000  Level Albuquerque Center
15:05 35.2139 -102.5986 268° West 427 491 36,000  Level Albuquerque Center
15:07 35.2100 -102.7419 268° West 425 489 36,000  Level Albuquerque Center
15:08 35.2061 -102.8847 268° West 422 486 36,000  Level Albuquerque Center
15:09 35.2019 -103.0456 268° West 422 486 36,000  Level Albuquerque Center
15:10 35.1969 -103.1900 268° West 422 486 36,000  Level Albuquerque Center
15:11 35.1919 -103.3356 268° West 424 488 36,000  Level Albuquerque Center
15:12 35.1878 -103.4806 268° West 424 488 36,000  Level Albuquerque Center
15:13 35.1822 -103.6264 267° West 425 489 36,000  Level Albuquerque Center
15:14 35.1772 -103.7731 268° West 426 490 36,000  Level Albuquerque Center
15:15 35.1725 -103.9189 268° West 427 491 36,000  Level Albuquerque Center
15:16 35.1681 -104.0647 268° West 428 493 36,000  Level Albuquerque Center
15:17 35.1636 -104.2086 268° West 426 490 36,000  Level Albuquerque Center
15:18 35.1572 -104.3797 267° West 423 487 36,000  Level Albuquerque Center
15:19 35.1514 -104.5239 267° West 424 488 36,000  Level Albuquerque Center
15:20 35.1450 -104.6567 267° West 426 490 36,000  Level Albuquerque Center
15:21 35.1383 -104.8236 267° West 420 483 36,000  Level Albuquerque Center
15:22 35.1331 -104.9678 267° West 421 484 36,000  Level Albuquerque Center
15:23 35.1272 -105.1128 267° West 423 487 36,000  Level Albuquerque Center
15:24 35.1217 -105.2572 267° West 422 486 36,000  Level Albuquerque Center
15:25 35.1150 -105.4042 267° West 427 491 36,000  Level Albuquerque Center
15:26 35.1097 -105.5478 267° West 423 487 36,000  Level Albuquerque Center
15:27 35.1025 -105.6931 267° West 424 488 36,000  Level Albuquerque Center
15:28 35.0964 -105.8378 267° West 424 488 36,000  Level Albuquerque Center
15:29 35.0881 -105.9953 266° West 424 488 36,000  Level Albuquerque Center
15:30 35.0803 -106.1400 266° West 426 490 36,000  Level Albuquerque Center
15:31 35.0725 -106.2856 266° West 430 495 36,100  Climbing Albuquerque Center
15:32 35.0642 -106.4303 266° West 429 494 36,000 -120 Descending Albuquerque Center
15:33 35.0564 -106.5747 266° West 427 491 35,900 -60 Descending Albuquerque Center
15:34 35.0472 -106.7214 266° West 429 494 35,900  Level Albuquerque Center
15:35 35.0422 -106.8903 268° West 425 489 36,000  Climbing Albuquerque Center
15:36 35.0381 -107.0475 268° West 431 496 36,000  Level Albuquerque Center
15:37 35.0350 -107.1942 269° West 433 498 36,000  Level Albuquerque Center
15:38 35.0306 -107.3239 268° West 438 504 36,000  Level Albuquerque Center
15:39 35.0258 -107.4706 268° West 433 498 36,000  Level Albuquerque Center
15:40 35.0217 -107.6500 268° West 441 507 36,000  Level Albuquerque Center
15:41 35.0175 -107.7956 268° West 434 499 36,000  Level Albuquerque Center
15:43 35.0100 -107.9417 266° West 431 496 36,000  Level Albuquerque Center
15:44 35.0050 -108.0875 268° West 432 497 36,000  Level Albuquerque Center
15:45 35.0014 -108.2342 268° West 431 496 36,000  Level Albuquerque Center
15:46 34.9975 -108.3797 268° West 432 497 36,000  Level Albuquerque Center
15:47 34.9911 -108.5258 267° West 432 497 36,000  Level Albuquerque Center
15:48 34.9847 -108.7008 267° West 431 496 36,000  Level Albuquerque Center
15:49 34.9786 -108.8464 267° West 431 496 36,000  Level Albuquerque Center
15:50 34.9725 -108.9925 267° West 431 496 36,000  Level Albuquerque Center
15:51 34.9672 -109.1375 267° West 431 496 36,000  Level Albuquerque Center
15:52 34.9564 -109.2819 265° West 430 495 36,000  Level Albuquerque Center
15:53 34.9469 -109.4258 265° West 428 493 36,000  Level Albuquerque Center
15:54 34.9372 -109.5967 266° West 428 493 36,000  Level Albuquerque Center
15:55 34.9267 -109.7389 265° West 427 491 36,000  Level Albuquerque Center
15:56 34.9156 -109.8836 265° West 432 497 36,000  Level Albuquerque Center
15:57 34.9053 -110.0278 265° West 433 498 36,000  Level Albuquerque Center
15:58 34.8953 -110.1658 265° West 433 498 36,000  Level Albuquerque Center
15:59 34.8822 -110.3394 265° West 431 496 36,000  Level Albuquerque Center
16:00 34.8708 -110.4861 265° West 435 501 36,000  Level Albuquerque Center
16:01 34.8603 -110.6314 265° West 434 499 36,000  Level Albuquerque Center
16:02 34.8489 -110.7756 265° West 431 496 36,000  Level Albuquerque Center
16:03 34.8369 -110.9214 264° West 434 499 36,000  Level Albuquerque Center
16:04 34.8247 -111.0678 264° West 436 502 36,000  Level Albuquerque Center
16:05 34.8103 -111.2425 264° West 435 501 36,000  Level Albuquerque Center
16:06 34.7983 -111.3889 264° West 436 502 36,000  Level Albuquerque Center
16:07 34.7861 -111.5350 264° West 437 503 36,000  Level Albuquerque Center
16:08 34.7739 -111.6817 264° West 438 504 36,000  Level Albuquerque Center
16:09 34.7603 -111.8267 264° West 436 502 36,000  Level Albuquerque Center
16:10 34.7478 -111.9719 264° West 435 501 36,000  Level Albuquerque Center
16:11 34.7325 -112.1458 264° West 434 499 36,000  Level Albuquerque Center
16:12 34.7183 -112.2911 263° West 435 501 36,000 -180 Level Albuquerque Center
16:13 34.7056 -112.4400 264° West 433 498 35,700 -420 Descending Albuquerque Center
16:14 34.6756 -112.5828 256° West 435 501 35,200 -540 Descending Albuquerque Center
16:15 34.6378 -112.7233 252° West 439 505 34,700 -540 Descending Albuquerque Center
16:16 34.6006 -112.8653 252° West 441 507 34,200 -360 Descending Albuquerque Center
16:18 34.5631 -113.0072 252° West 443 510 34,000 -120 Descending Albuquerque Center
16:19 34.5158 -113.1778 251° West 444 511 34,000  Level Albuquerque Center
16:20 34.4778 -113.3206 252° West 445 512 34,000  Level Albuquerque Center
16:21 34.4406 -113.4636 253° West 446 513 34,000  Level Albuquerque Center
16:22 34.4031 -113.5972 251° West 446 513 34,000  Level Albuquerque Center
16:23 34.3600 -113.7508 251° West 446 513 34,000  Level Albuquerque Center
16:24 34.3200 -113.8939 251° West 447 514 34,000  Level Albuquerque Center
16:25 34.3008 -114.0403 261° West 445 512 34,000 -240 Level Albuquerque Center
16:26 34.2953 -114.2183 268° West 442 509 33,600 -600 Descending Albuquerque Center
16:27 34.2911 -114.3675 268° West 443 510 32,800 -840 Descending Albuquerque Center
16:28 34.2872 -114.5158 268° West 443 510 32,000 -840 Descending Albuquerque Center
16:29 34.2564 -114.6781 257° West 431 496 31,000 -720 Descending Los Angeles Center
16:30 34.2014 -114.7750 236° Southwest 437 503 30,400 -540 Descending Los Angeles Center
16:31 34.1183 -114.9178 235° Southwest 434 499 29,900 -240 Descending Los Angeles Center
16:32 34.0489 -115.0361 235° Southwest 432 497 30,000  Climbing Los Angeles Center
16:33 33.9672 -115.1794 236° Southwest 433 498 29,900 -60 Descending Los Angeles Center
16:34 33.8972 -115.2967 234° Southwest 433 498 29,900 -180 Level Los Angeles Center
16:35 33.8278 -115.4161 235° Southwest 436 502 29,600 -540 Descending Los Angeles Center
16:36 33.7589 -115.5331 235° Southwest 430 495 28,900 -720 Descending Los Angeles Center
16:37 33.6903 -115.6494 235° Southwest 427 491 28,200 -720 Descending Los Angeles Center
16:38 33.6219 -115.7647 235° Southwest 424 488 27,500 -780 Descending Los Angeles Center
16:39 33.5408 -115.9017 235° Southwest 420 483 26,700 -1,200 Descending Los Angeles Center
16:40 33.4722 -116.0139 234° Southwest 417 480 25,100 -1,860 Descending Los Angeles Center
16:41 33.4000 -116.0800 217° Southwest 410 472 23,000 -2,400 Descending Los Angeles Center
16:42 33.2942 -116.1789 218° Southwest 403 464 20,200 -2,580 Descending Los Angeles Center
16:43 33.2081 -116.2592 218° Southwest 398 458 17,700 -2,400 Descending Los Angeles Center
16:45 33.1094 -116.3489 217° Southwest 381 438 14,800 -2,520 Descending Los Angeles Center
16:46 33.0122 -116.4375 217° Southwest 367 422 12,000 -1,980 Descending Los Angeles Center
16:47 32.9372 -116.4978 214° Southwest 332 382 10,800 -1,140 Descending Los Angeles Center
16:48 32.8906 -116.5756 234° Southwest 313 360 9,700 -1,260 Descending Los Angeles Center
16:49 32.8442 -116.6517 234° Southwest 294 338 8,300 -1,440 Descending Los Angeles Center
16:50 32.7875 -116.7450 234° Southwest 292 336 6,800 -1,320 Descending Los Angeles Center
16:51 32.7425 -116.8181 234° Southwest 282 325 5,600 -900 Descending Los Angeles Center
16:52 32.7000 -116.8833 232° Southwest 259 298 5,000 -660 Descending Southern California TRACON
16:53 32.7000 -116.9667 270° West 218 251 4,400 -900 Descending Southern California TRACON
16:54 32.7000 -117.0333 270° West 188 216 3,300 -1,140 Descending Southern California TRACON